Highgate, VT

8:40 PM EST on November 17, 2019 (GMT -0500)
Franklin County State

Weather History for KFSO - September, 2019

Change the Weather History Date:

Tuesday, September 10, 2019

  Actual Average (KPBG) Record (KPBG)
Temperature  
Mean Temperature 60 °F -  
Max Temperature 73 °F 73 °F 90 °F (1961)
Min Temperature 46 °F 52 °F 36 °F (1956)
Degree Days  
Heating Degree Days 6    
Growing Degree Days 10 (Base 50)    
Moisture  
Dew Point 55 °F    
Average Humidity 80    
Maximum Humidity 97    
Minimum Humidity 54    
Precipitation  
Precipitation 0.00 in - - ()
Sea Level Pressure  
Sea Level Pressure 30.26 in    
Wind  
Wind Speed 3 mph (SSE)    
Max Wind Speed 9 mph    
Max Gust Speed 17 mph    
Visibility 10 miles    
Events Rain    
Averages and records for this station are not official NWS values.
T = Trace of Precipitation, MM = Missing Value Source: NWS Daily Summary

Daily Weather History Graph

Daily Weather History Graph

Search for Another Location

Airport or City:

Astronomy

Sep. 10, 2019 Rise Set
Actual Time 6:24 AM EDT 7:13 PM EDT
Civil Twilight 5:55 AM EDT 7:42 PM EDT
Nautical Twilight 5:19 AM EDT 8:18 PM EDT
Astronomical Twilight 4:42 AM EDT 8:54 PM EDT
Moon 5:58 PM EDT (9/10) 2:36 AM EDT (9/10)
Length of Visible Light 13h 47m
Length of Day
12h 48m
Waxing Gibbous, 89% of the Moon is Illuminated
Sep 10
Waxing Gibbous
Sep 14
Full
Sep 21
Last Quarter
Sep 28
New
Oct 5
First Quarter

Hourly Weather History & Observations

Time (EDT) Temp. Dew Point Humidity Pressure Visibility Wind Dir Wind Speed Gust Speed Precip Events Conditions
12:15 AM 48.4 °F 47.3 °F 96% 30.34 in 10.0 mi Calm Calm - N/A   Clear
12:35 AM 48.7 °F 47.5 °F 95% 30.34 in 10.0 mi Calm Calm - N/A   Clear
12:56 AM 49.1 °F 47.7 °F 95% 30.34 in 10.0 mi Calm Calm - N/A   Clear
1:15 AM 49.3 °F 48.2 °F 96% 30.34 in 10.0 mi ESE 3.5 mph - N/A   Clear
1:36 AM 48.7 °F 47.5 °F 95% 30.35 in 10.0 mi Calm Calm - N/A   Clear
1:55 AM 48.6 °F 47.3 °F 95% 30.35 in 10.0 mi ESE 3.5 mph - N/A   Clear
2:16 AM 48.2 °F 46.9 °F 95% 30.35 in 10.0 mi ESE 3.5 mph - N/A   Clear
2:55 AM 47.3 °F 46.0 °F 95% 30.35 in 10.0 mi Calm Calm - N/A   Clear
3:15 AM 47.3 °F 46.0 °F 95% 30.35 in 10.0 mi Calm Calm - N/A   Clear
3:36 AM 47.3 °F 46.4 °F 97% 30.35 in 10.0 mi East 4.6 mph - N/A   Clear
3:55 AM 47.5 °F 46.4 °F 96% 30.35 in 10.0 mi Calm Calm - N/A   Clear
4:15 AM 46.9 °F 45.7 °F 95% 30.35 in 10.0 mi SE 3.5 mph - N/A   Clear
4:35 AM 47.5 °F 46.4 °F 96% 30.35 in 10.0 mi Calm Calm - N/A   Clear
4:55 AM 47.5 °F 46.4 °F 96% 30.35 in 10.0 mi ESE 3.5 mph - N/A   Clear
5:15 AM 46.8 °F 45.5 °F 95% 30.35 in 10.0 mi Calm Calm - N/A   Clear
5:35 AM 46.6 °F 45.5 °F 96% 30.36 in 10.0 mi ESE 3.5 mph - N/A   Clear
5:56 AM 46.6 °F 45.5 °F 96% 30.36 in 10.0 mi ESE 4.6 mph - N/A   Mostly Cloudy
6:15 AM 46.6 °F 45.5 °F 96% 30.36 in 10.0 mi Calm Calm - N/A   Mostly Cloudy
6:36 AM 46.6 °F 45.3 °F 95% 30.36 in 10.0 mi ESE 4.6 mph - N/A   Clear
6:55 AM 46.4 °F 45.1 °F 95% 30.38 in 10.0 mi Calm Calm - N/A   Clear
7:16 AM 46.6 °F 45.5 °F 96% 30.36 in 10.0 mi ESE 3.5 mph - N/A   Clear
7:36 AM 48.0 °F 46.6 °F 95% 30.37 in 10.0 mi ESE 3.5 mph - N/A   Clear
7:55 AM 49.3 °F 47.3 °F 93% 30.37 in 10.0 mi East 5.8 mph - N/A   Clear
8:16 AM 50.4 °F 47.3 °F 89% 30.35 in 10.0 mi East 5.8 mph - N/A   Clear
8:35 AM 52.7 °F 48.9 °F 87% 30.35 in 10.0 mi ESE 4.6 mph - N/A   Clear
8:55 AM 54.3 °F 49.1 °F 83% 30.35 in 10.0 mi ESE 3.5 mph - N/A   Clear
9:15 AM 56.5 °F 49.5 °F 77% 30.36 in 10.0 mi Calm Calm - N/A   Clear
9:36 AM 58.6 °F 50.9 °F 75% 30.36 in 10.0 mi Calm Calm - N/A   Clear
9:55 AM 60.3 °F 52.0 °F 74% 30.35 in 10.0 mi Calm Calm - N/A   Scattered Clouds
10:15 AM 61.9 °F 52.2 °F 70% 30.34 in 10.0 mi Calm Calm - N/A   Scattered Clouds
10:36 AM 63.5 °F 52.3 °F 67% 30.34 in 10.0 mi Calm Calm - N/A   Clear
10:55 AM 65.5 °F 52.9 °F 64% 30.33 in 10.0 mi SE 4.6 mph - N/A   Clear
11:16 AM 66.4 °F 52.7 °F 61% 30.32 in 10.0 mi SSW 3.5 mph - N/A   Clear
11:36 AM 67.1 °F 53.2 °F 61% 30.31 in 10.0 mi Calm Calm - N/A   Clear
11:55 AM 68.0 °F 53.4 °F 60% 30.30 in 10.0 mi SSE 5.8 mph - N/A   Clear
12:16 PM 70.7 °F 54.0 °F 55% 30.29 in 10.0 mi South 5.8 mph - N/A   Clear
12:35 PM 70.9 °F 53.2 °F 54% 30.28 in 10.0 mi South 8.1 mph - N/A   Clear
12:56 PM 71.2 °F 54.7 °F 56% 30.27 in 10.0 mi SSW 6.9 mph - N/A   Clear
1:15 PM 72.7 °F 55.8 °F 55% 30.28 in 10.0 mi SSW 5.8 mph - N/A   Clear
1:35 PM 73.2 °F 56.8 °F 56% 30.26 in 10.0 mi SW 3.5 mph - N/A   Clear
1:55 PM 72.0 °F 56.7 °F 58% 30.25 in 10.0 mi WSW 3.5 mph - N/A   Clear
2:16 PM 72.5 °F 56.8 °F 58% 30.25 in 10.0 mi SW 3.5 mph - N/A   Clear
2:35 PM 70.9 °F 57.2 °F 62% 30.24 in 10.0 mi South 3.5 mph - N/A   Clear
2:56 PM 71.6 °F 57.6 °F 61% 30.23 in 10.0 mi South 3.5 mph - N/A   Mostly Cloudy
3:15 PM 71.4 °F 58.3 °F 63% 30.22 in 10.0 mi Calm Calm - N/A   Overcast
3:36 PM 71.4 °F 58.8 °F 64% 30.21 in 10.0 mi Calm Calm - N/A   Mostly Cloudy
3:55 PM 71.1 °F 60.3 °F 69% 30.21 in 10.0 mi Calm Calm - N/A   Mostly Cloudy
4:15 PM 72.5 °F 59.7 °F 64% 30.20 in 10.0 mi Calm Calm - N/A   Scattered Clouds
4:35 PM 72.3 °F 61.2 °F 68% 30.19 in 10.0 mi Calm Calm - N/A   Overcast
4:55 PM 71.8 °F 61.3 °F 70% 30.16 in 7.0 mi SSE 5.8 mph - N/A   Overcast
5:16 PM 72.9 °F 61.0 °F 66% 30.16 in 10.0 mi South 6.9 mph - N/A   Mostly Cloudy
5:35 PM 72.5 °F 61.0 °F 67% 30.16 in 10.0 mi South 5.8 mph - N/A   Scattered Clouds
5:56 PM 72.0 °F 61.5 °F 70% 30.14 in 10.0 mi SSE 6.9 mph - N/A   Mostly Cloudy
6:15 PM 72.5 °F 61.2 °F 67% 30.15 in 10.0 mi SSE 4.6 mph - N/A   Mostly Cloudy
6:36 PM 72.1 °F 61.3 °F 69% 30.15 in 10.0 mi South 5.8 mph - N/A   Scattered Clouds
7:15 PM 71.6 °F 61.9 °F 71% 30.14 in 10.0 mi South 4.6 mph - N/A Rain Light Rain
7:35 PM 71.6 °F 61.9 °F 71% 30.11 in 10.0 mi South 9.2 mph - N/A   Mostly Cloudy
7:55 PM 72.1 °F 62.2 °F 71% 30.10 in 10.0 mi South 8.1 mph 16.1 mph N/A   Scattered Clouds
8:16 PM 72.5 °F 62.6 °F 71% 30.09 in 10.0 mi South 8.1 mph - N/A   Mostly Cloudy
8:35 PM 72.5 °F 63.5 °F 73% 30.09 in 10.0 mi South 9.2 mph 17.3 mph N/A   Mostly Cloudy
9:15 PM 72.1 °F 64.8 °F 78% 30.08 in 10.0 mi South 8.1 mph 17.3 mph N/A   Overcast
9:35 PM 70.5 °F 66.4 °F 87% 30.10 in 5.0 mi SSW 4.6 mph 16.1 mph N/A Rain Heavy Rain
9:55 PM 69.1 °F 67.1 °F 93% 30.10 in 4.0 mi Calm Calm - N/A Rain Rain
10:16 PM 68.9 °F 67.3 °F 95% 30.09 in 10.0 mi South 3.5 mph - N/A   Overcast
10:35 PM 69.1 °F 67.3 °F 94% 30.08 in 10.0 mi South 6.9 mph - N/A   Overcast
10:56 PM 69.4 °F 67.1 °F 92% 30.07 in 10.0 mi South 8.1 mph - N/A   Drizzle
11:15 PM 69.1 °F 67.3 °F 94% 30.08 in 7.0 mi Calm Calm - N/A Rain Light Rain
11:36 PM 69.1 °F 67.5 °F 95% 30.07 in 10.0 mi South 4.6 mph - N/A   Overcast
11:55 PM 69.1 °F 67.3 °F 94% 30.06 in 10.0 mi South 5.8 mph - N/A   Overcast